Theta_e
301 302 302 302 302 302 303 303 304 304 303 304 303 306 304 304 301 310 313 315 312 306 296 298 295 296 297 298 297 298 297 297 297 296 297 295 297 296 295 295 294 295 295 294 295 295 293 294 296 299 299 299 300 304 304 304 303 304 301 301 303 306 294 292 294 297 299 302 301 302 303 301 300 301 301 300 296 296 295 294 295 292 293 290 290 286 292
302 302 302 302 302 303 303 303 304 304 304 303 304 304 304 304 304 306 312 315 311 302 290 291 293 295 297 297 296 298 297 296 295 294 296 295 295 295 295 296 297 295 297 296 293 296 289 295 296 297 299 299 303 304 305 305 303 303 301 298 305 293 298 295 290 290 292 296 298 298 301 301 299 300 301 300 300 299 300 299 298 290 292 291 290 283 290
302 301 301 302 302 302 303 303 304 304 304 304 304 303 307 306 307 306 308 313 310 297 299 296 293 295 295 295 293 295 295 296 296 296 295 297 296 296 295 296 297 296 296 295 296 296 293 292 296 298 298 299 302 302 304 305 303 306 307 305 305 296 293 293 285 283 281 282 282 287 290 294 299 300 299 300 299 299 297 290 293 287 292 295 290 289 300
301 301 302 302 302 303 303 304 304 304 303 303 303 304 305 301 293 301 304 307 305 303 304 301 297 295 295 291 293 294 293 295 297 297 296 297 297 297 296 297 297 295 294 294 293 293 296 293 293 295 297 299 300 302 302 301 303 307 305 305 303 297 300 296 292 289 287 290 291 294 294 295 294 296 298 298 300 301 300 298 292 289 292 291 294 296 297
301 301 301 302 302 303 303 304 304 303 303 303 306 305 306 304 296 296 293 302 302 299 301 299 298 294 297 289 293 292 294 294 295 298 295 297 296 296 296 295 294 294 293 293 293 293 292 295 294 293 295 298 299 301 301 300 302 303 303 305 303 299 292 296 296 294 294 295 294 295 295 294 295 295 296 298 298 300 299 292 290 297 292 287 299 298 296
301 301 302 302 302 303 304 304 304 302 303 303 305 304 305 296 300 301 304 296 292 294 294 299 296 296 297 293 295 292 292 293 291 295 296 297 298 294 294 295 294 293 292 294 290 292 292 293 290 294 295 296 300 299 300 299 301 303 303 304 299 295 290 298 296 295 295 295 295 296 295 295 295 295 296 296 297 298 297 296 298 298 292 289 295 299 297
301 301 302 302 302 303 304 304 305 303 302 303 305 302 302 303 302 302 303 296 298 299 298 299 297 296 295 293 294 292 292 291 293 294 295 295 295 295 288 293 293 293 294 294 292 293 288 287 294 293 294 295 297 298 298 299 301 301 301 302 302 298 292 294 297 295 295 295 295 296 294 293 294 294 295 295 296 295 295 296 296 297 297 298 299 298 291
301 301 301 302 302 303 304 304 305 303 301 303 305 305 301 300 298 297 301 302 299 299 299 297 296 293 295 290 293 292 292 291 293 294 294 290 293 296 293 292 294 294 293 294 292 293 294 292 289 295 294 295 297 296 298 296 299 300 298 300 302 296 292 296 297 294 294 296 296 296 295 295 292 293 294 295 296 295 296 295 296 297 299 299 298 297 291
300 301 301 302 302 303 303 304 305 302 301 305 305 305 305 305 306 307 298 295 297 297 297 295 294 291 293 291 292 293 292 292 293 292 295 294 292 293 292 293 294 294 294 294 293 294 294 294 294 296 294 291 296 293 296 296 295 297 298 298 300 299 294 298 296 290 290 294 295 295 295 295 293 291 291 291 292 291 293 291 294 294 292 296 297 295 290
300 301 301 301 302 303 304 304 305 304 301 305 306 303 307 307 307 305 303 294 293 294 296 294 293 288 293 294 293 293 293 294 294 289 294 295 295 295 294 294 295 293 293 293 294 295 295 295 296 297 297 298 297 297 296 295 294 294 296 299 297 299 297 292 293 288 287 294 295 294 294 292 289 285 287 288 291 292 294 296 296 294 294 292 291 295 295
300 300 301 301 302 302 303 304 305 304 306 304 305 305 307 306 303 302 302 293 292 296 294 292 292 293 294 294 293 294 295 294 294 290 288 295 295 297 297 296 293 293 293 295 297 297 298 298 298 299 297 296 296 296 296 295 295 295 295 296 297 298 298 294 298 289 289 289 291 294 289 282 282 288 293 291 289 289 289 291 291 293 295 294 297 296 296
299 300 300 301 302 302 303 303 304 305 303 305 304 305 308 307 305 303 295 292 291 296 294 292 294 294 294 293 294 292 292 293 294 295 293 295 296 298 297 296 295 288 296 300 299 299 299 298 297 297 296 296 295 295 296 297 298 299 299 296 295 296 295 293 297 290 288 290 290 286 281 282 288 293 293 293 294 293 288 291 292 293 295 297 295 295 295
299 300 300 301 302 302 303 303 304 304 304 305 304 304 308 307 306 302 298 295 291 294 291 292 294 294 294 294 293 293 293 294 295 296 296 296 296 297 297 296 295 295 299 298 298 298 294 294 295 295 295 294 295 296 296 296 296 298 299 299 297 292 291 293 291 292 292 288 287 279 280 287 291 292 292 293 294 292 292 291 294 294 294 295 294 294 294
299 299 300 301 301 302 303 304 304 305 304 304 303 306 307 306 305 300 299 294 291 296 296 293 293 293 294 293 293 293 293 294 295 296 294 297 295 295 296 296 297 299 299 299 298 297 293 293 288 290 292 293 294 292 295 295 296 295 296 298 299 298 298 295 289 292 284 286 286 283 286 287 288 288 288 288 285 286 286 285 289 293 294 294 291 292 292
299 299 300 301 301 302 303 303 304 305 304 304 307 307 307 308 307 305 302 299 291 293 295 289 293 294 294 292 292 292 293 293 292 293 295 297 295 296 297 297 299 299 301 298 295 296 292 291 286 286 288 286 282 283 292 289 293 296 295 296 298 300 292 295 289 288 290 287 285 284 283 281 283 287 292 293 292 290 291 287 288 293 294 295 292 290 291
299 299 300 300 301 302 303 303 304 304 305 304 308 306 307 309 309 304 303 299 295 288 292 295 295 294 293 292 293 291 290 289 291 292 292 294 293 296 296 298 300 300 298 296 296 293 291 287 285 284 283 284 282 284 284 290 287 294 295 294 294 293 294 291 291 288 288 285 284 283 280 282 287 288 291 293 293 291 290 287 285 289 292 293 293 290 290
299 299 300 301 301 302 303 303 304 304 305 304 307 306 306 307 305 304 301 299 297 289 293 294 296 295 292 290 293 292 293 290 291 289 288 290 292 291 295 298 301 300 297 296 295 292 289 288 290 289 286 287 283 283 286 286 285 287 292 294 293 290 292 291 288 287 286 286 284 280 283 281 287 289 290 291 293 292 288 282 282 286 291 293 292 291 290
299 299 300 300 301 302 303 304 304 305 305 304 308 306 305 308 307 305 302 298 292 290 294 295 294 293 292 293 291 292 295 294 293 293 291 292 291 291 293 296 295 297 298 293 293 290 288 288 286 286 284 286 285 285 280 283 282 282 284 285 287 287 288 290 286 286 284 284 283 284 284 288 290 289 290 292 293 290 283 279 284 290 292 293 293 292 293
299 299 300 300 301 302 303 304 304 304 305 304 308 308 305 307 304 306 303 298 295 288 294 296 297 295 295 297 296 295 294 294 294 290 289 289 291 293 293 294 295 292 296 292 294 289 288 287 292 290 286 285 288 282 286 283 281 285 285 283 283 285 285 286 288 287 286 286 284 282 284 287 290 291 293 294 289 282 281 286 292 292 292 294 293 291 291
299 300 300 300 301 302 303 304 304 305 305 305 307 302 303 307 306 307 303 296 296 292 295 296 297 294 296 296 294 294 295 295 294 293 290 289 295 295 294 290 295 295 293 296 289 291 288 286 288 290 287 287 287 290 286 285 288 284 283 285 283 281 282 283 284 286 288 286 284 282 277 286 291 290 293 293 286 284 290 291 293 294 292 291 291 290 290
299 299 300 300 301 302 303 304 305 305 305 305 303 308 301 308 311 311 314 302 296 291 292 297 297 297 297 297 298 296 295 293 294 292 293 294 295 294 287 287 292 293 290 291 288 288 289 287 290 288 291 289 287 289 284 284 285 290 289 287 286 288 284 284 284 287 283 282 279 279 284 287 291 290 284 288 290 293 293 292 290 293 292 290 288 289 290
299 299 300 301 302 302 303 304 305 305 305 304 303 312 301 306 309 309 309 307 298 294 296 299 300 300 299 300 300 301 298 297 298 298 296 293 297 295 293 295 294 295 295 296 293 290 294 292 294 289 287 288 293 286 288 284 281 287 292 291 282 289 286 287 283 288 286 282 284 287 289 291 292 292 291 292 295 296 296 294 293 291 290 292 290 288 290
299 299 300 300 301 302 303 304 305 305 305 304 307 308 302 303 304 310 313 298 300 300 301 300 300 300 300 300 301 301 301 301 301 302 300 297 293 296 295 295 294 297 297 298 294 294 294 294 289 293 290 291 288 287 288 287 284 287 284 291 289 293 294 294 290 286 290 290 290 291 291 292 293 295 295 295 296 297 297 295 293 293 292 293 291 291 291
299 299 300 300 301 302 303 304 304 305 304 303 304 308 303 306 307 308 303 300 296 293 297 301 297 292 295 295 299 301 301 300 301 301 304 301 293 293 297 297 296 299 297 298 296 296 294 294 293 294 286 290 294 287 284 283 285 289 288 287 291 294 295 293 288 290 288 281 290 290 292 294 294 293 296 298 298 297 297 295 294 294 294 294 294 293 293
299 299 300 300 301 302 303 304 305 304 303 302 306 307 311 307 307 307 300 292 293 293 288 291 293 297 299 301 301 300 299 301 301 303 303 303 301 296 294 298 299 299 296 298 300 298 295 290 292 291 285 290 294 285 291 287 285 292 286 288 290 288 296 292 291 290 286 285 290 293 295 295 295 295 294 294 296 297 298 297 297 296 296 295 295 295 294
299 300 300 300 301 302 303 304 304 304 303 302 306 310 307 303 307 310 305 303 301 294 289 288 293 300 301 299 296 297 300 300 300 301 301 299 300 306 300 300 299 301 300 300 301 296 294 293 292 291 289 288 297 288 287 291 290 293 289 287 293 292 295 286 290 287 289 292 293 293 295 294 295 297 298 298 297 297 297 297 297 297 296 296 297 297 295
299 300 300 301 301 302 303 304 304 303 303 302 307 309 308 307 310 308 304 301 296 290 292 289 293 296 298 296 298 300 300 300 303 301 300 299 299 302 303 301 299 300 300 298 299 295 295 293 292 290 292 290 295 293 294 291 291 288 287 291 295 293 288 291 289 285 285 286 289 293 286 286 292 295 297 298 299 299 298 298 298 297 296 296 296 297 298
299 300 301 301 302 303 304 304 304 303 302 303 307 306 308 307 307 309 309 306 301 291 291 290 291 295 301 296 299 300 300 302 301 300 299 299 301 301 301 299 300 299 298 296 292 292 291 288 288 290 291 294 291 288 294 294 293 290 289 291 294 290 291 291 287 286 285 290 293 295 294 293 294 296 298 298 299 298 297 297 298 298 298 298 297 296 296
299 300 301 302 302 303 304 304 304 303 300 302 309 307 305 307 309 309 309 309 309 299 295 295 298 297 290 293 301 299 300 303 301 300 299 298 299 300 299 299 299 299 298 295 293 292 290 289 292 291 290 293 292 288 290 285 285 284 288 294 294 295 297 295 294 293 294 295 296 296 294 291 295 297 298 298 299 298 296 297 298 298 298 298 298 298 297
299 300 301 302 303 304 304 305 304 303 302 309 308 304 298 299 307 307 308 309 309 302 293 290 287 288 299 298 298 298 298 300 300 300 299 298 298 298 299 299 298 300 298 294 292 289 290 290 290 294 295 298 292 289 286 286 285 286 293 295 296 297 297 297 298 294 292 297 297 297 296 296 298 298 298 298 299 298 296 296 297 297 298 299 298 297 298
300 300 301 302 303 304 304 305 305 301 300 308 306 294 293 290 299 308 305 310 309 305 295 294 289 294 293 298 300 296 297 297 299 299 299 300 298 299 300 300 299 298 293 293 292 291 292 288 289 291 296 294 292 289 287 285 283 286 291 294 295 295 295 296 298 298 297 297 298 298 297 297 297 296 296 297 297 298 297 296 297 298 299 298 298 298 298
300 301 302 302 303 304 304 305 304 304 307 304 301 300 299 300 303 304 306 307 309 302 293 289 288 289 289 293 298 299 298 297 300 299 298 300 297 299 298 299 295 298 294 292 292 291 289 290 290 292 292 293 292 289 289 286 283 284 291 293 295 296 297 296 296 297 298 298 297 295 294 294 295 294 293 296 296 297 297 296 297 296 297 297 297 297 298
300 301 301 302 303 303 304 304 302 304 304 303 301 302 303 302 302 305 305 311 307 300 301 292 287 288 288 291 298 298 298 301 297 297 294 299 296 299 294 300 299 297 299 294 289 288 292 290 291 289 292 298 290 288 288 285 287 291 293 293 293 294 295 296 296 297 297 297 297 291 290 292 294 296 297 296 296 296 296 295 295 296 296 295 295 295 296
300 301 301 302 303 303 303 303 300 300 302 305 301 301 306 303 306 303 307 310 303 301 297 291 287 287 287 295 292 295 299 294 293 296 289 296 298 298 293 296 296 290 293 291 292 292 292 291 289 288 292 289 290 287 283 287 292 292 293 294 295 295 296 295 295 295 295 296 296 296 295 296 297 298 297 296 295 296 297 296 296 295 294 294 294 295 295
300 301 302 302 303 302 301 301 308 304 299 300 301 304 306 303 302 303 307 308 292 291 291 290 292 287 286 288 287 291 298 296 290 294 290 293 299 295 295 291 292 289 288 299 291 290 288 288 294 288 285 291 287 283 285 288 290 292 292 292 294 294 294 293 293 295 296 296 296 296 296 296 296 295 294 295 295 295 295 295 295 295 293 293 294 295 295
300 301 302 302 301 302 307 306 304 299 297 297 300 303 302 305 306 310 310 309 304 293 289 289 291 288 288 284 284 289 298 293 295 295 294 293 294 296 296 292 286 288 294 292 288 291 288 292 290 285 289 285 283 286 288 291 291 292 292 292 293 294 293 293 294 295 296 297 297 296 296 295 294 294 295 295 295 295 295 294 295 295 294 294 294 295 295
300 301 302 301 304 305 299 297 300 303 301 304 305 303 301 304 308 310 308 306 305 306 295 290 289 289 292 288 290 291 296 287 293 291 292 290 288 290 292 289 285 289 290 288 288 287 290 296 289 285 285 283 285 291 292 293 292 292 292 293 294 294 294 294 295 295 295 295 295 294 294 294 294 294 294 294 294 295 294 294 294 294 294 293 294 294 295
301 301 304 302 300 292 292 294 300 305 302 302 302 303 301 300 294 294 295 293 296 300 294 296 289 292 294 294 287 294 295 289 295 288 288 291 289 287 291 288 287 288 283 285 287 292 291 289 286 285 285 290 292 293 293 294 294 295 295 294 294 295 295 295 295 294 293 292 292 292 293 293 293 294 293 293 294 294 294 295 295 295 295 294 295 295 295
300 304 302 301 297 291 292 298 305 299 304 303 302 296 291 294 292 289 289 292 292 290 293 293 290 294 293 291 291 296 294 290 289 290 286 291 288 284 289 284 287 288 284 284 286 294 284 285 286 285 284 288 289 291 294 294 295 295 295 296 296 296 296 296 296 295 294 293 293 294 294 292 292 293 294 294 294 295 295 295 295 295 295 295 295 295 295
303 299 294 294 293 296 303 304 299 302 304 294 295 293 288 292 289 285 292 288 288 290 293 288 293 294 294 292 290 289 297 293 287 287 288 288 294 286 287 288 287 286 280 282 284 293 285 280 284 284 283 287 288 293 294 294 294 295 295 296 296 296 296 295 295 296 296 296 296 296 296 296 295 295 295 294 294 294 294 295 295 296 295 295 295 295 295
301 299 297 293 298 302 303 304 303 300 294 291 290 289 288 286 289 289 289 287 287 287 293 293 294 292 293 294 294 289 294 298 295 296 292 287 291 292 286 282 288 284 281 281 287 289 287 284 283 283 284 288 290 292 294 294 294 295 296 296 296 296 296 296 296 296 296 295 295 296 296 296 296 296 296 296 295 295 293 294 295 295 296 296 295 296 296
301 302 303 305 304 303 303 298 295 291 290 291 287 283 286 287 289 288 289 285 285 289 291 293 288 291 290 294 293 294 292 296 293 290 289 284 288 287 284 286 286 282 279 286 288 287 285 280 281 283 287 291 292 293 293 293 293 294 295 296 296 297 296 296 296 296 296 295 295 295 296 296 296 296 296 296 295 295 295 295 295 296 296 296 297 296 296
296 299 302 301 297 294 294 289 290 290 284 284 282 281 285 283 285 285 286 289 290 292 290 297 295 296 295 298 293 295 292 296 291 289 288 284 288 288 285 283 282 279 283 289 287 283 281 280 281 285 290 291 292 293 293 294 294 295 295 296 297 297 296 296 296 295 296 296 296 296 295 296 296 296 296 296 295 295 295 295 296 296 296 296 296 297 297
302 303 297 293 290 290 291 281 289 286 283 284 282 278 281 281 284 286 285 287 290 289 293 290 291 292 287 293 291 289 290 293 292 290 288 289 287 284 283 281 281 286 290 285 284 281 282 284 286 289 291 292 293 293 293 294 294 294 295 295 296 297 296 296 296 296 296 297 297 297 296 296 296 296 296 296 296 295 296 295 297 297 297 297 296 296 297
294 291 291 289 286 288 286 278 289 285 280 282 284 284 284 282 285 287 287 291 293 290 294 294 293 292 288 292 293 291 291 288 292 288 283 287 284 285 282 281 285 286 283 280 282 283 282 282 288 290 291 291 292 293 294 295 294 294 294 295 295 295 295 295 295 295 295 296 296 296 296 296 296 296 296 296 296 297 296 296 297 296 297 297 296 297 297
290 289 288 282 276 284 285 282 283 281 286 287 286 289 288 290 290 289 293 296 293 293 293 293 294 292 289 292 289 287 290 290 287 286 287 287 283 280 285 288 287 282 280 282 279 279 281 285 288 289 291 292 293 294 294 295 295 295 294 294 295 295 295 295 295 295 295 296 296 296 296 296 296 296 296 296 297 296 297 297 297 297 297 296 296 296 297
290 290 290 288 282 285 287 282 284 287 289 289 291 292 292 293 294 293 294 296 294 295 295 295 294 294 289 289 289 289 290 290 285 286 288 283 281 283 286 283 278 280 277 277 278 281 284 287 289 291 293 293 293 293 294 294 294 294 294 295 294 295 295 295 296 295 296 296 296 296 296 296 296 297 297 296 296 297 296 297 298 298 297 296 296 297 297
287 289 289 281 279 285 283 286 291 290 291 292 292 293 294 294 292 291 294 297 296 295 293 292 290 290 289 292 293 287 287 288 285 285 287 284 285 283 280 280 279 281 282 280 281 285 287 290 291 292 293 294 294 293 294 294 295 295 295 295 295 295 296 295 295 296 296 296 296 296 296 296 297 296 296 296 296 297 297 298 298 298 298 297 297 297 297
291 289 286 285 286 287 287 290 290 288 290 292 293 293 293 293 292 292 294 296 295 294 296 293 290 290 286 289 287 286 283 287 282 281 285 284 280 276 277 275 277 277 282 285 286 288 289 292 293 294 294 294 294 295 295 295 295 295 295 295 295 296 296 296 296 296 297 296 296 296 296 296 296 296 296 296 296 296 297 298 298 298 298 297 296 296 296
289 288 289 288 286 288 291 291 291 287 290 291 292 291 293 292 291 293 296 295 295 294 293 291 292 289 287 287 283 285 284 287 285 284 282 280 280 281 280 276 279 280 283 286 288 289 292 293 294 293 294 294 294 295 295 295 294 295 296 296 296 297 296 296 296 297 297 297 297 297 297 296 296 296 296 296 297 297 297 298 298 297 297 297 297 297 296
292 290 289 291 289 287 289 285 286 286 288 289 291 291 292 291 292 291 297 295 295 292 290 287 288 287 285 284 283 279 282 287 284 282 282 281 283 282 279 278 282 286 287 290 292 292 293 293 293 293 294 294 295 295 295 295 296 296 296 296 296 297 296 297 296 296 297 297 297 293 296 296 296 297 297 298 297 296 296 296 297 297 297 297 297 297 296
289 287 287 290 292 292 293 293 293 291 291 292 292 294 295 292 294 294 297 296 293 289 287 289 287 285 283 280 282 286 287 285 282 282 281 283 285 282 282 284 286 288 290 290 291 293 293 294 295 292 295 294 294 295 296 296 296 296 296 296 296 296 296 296 296 296 296 296 297 297 297 297 298 298 297 297 296 296 294 295 297 298 297 298 297 298 297
Wind_Speed
12 12 11 12 13 14 15 16 15 12 12 7 2 4 4 4 3 5 4 5 4 6 2 3 2 1 4 1 3 1 2 2 2 2 1 4 1 2 4 2 3 3 4 4 3 5 2 3 1 2 4 7 8 5 3 2 3 5 4 4 3 3 4 7 9 8 8 6 2 3 3 3 5 4 2 4 8 5 8 7 7 8 2 4 6 7 1
12 12 12 12 14 14 16 16 15 12 8 6 6 5 4 4 6 5 4 4 4 5 2 3 2 4 4 1 4 1 3 1 2 2 2 3 1 2 1 3 2 2 2 3 4 6 2 3 1 4 1 4 5 6 4 5 0 2 2 3 5 4 2 4 3 4 6 8 4 7 4 6 3 1 3 4 5 5 4 5 7 8 8 11 7 9 2
12 11 11 13 14 15 16 15 15 14 10 8 5 2 3 6 3 4 4 4 4 1 3 1 2 4 4 3 5 5 4 4 4 3 4 1 2 3 1 4 5 2 1 2 2 2 6 1 4 2 1 4 2 6 7 6 3 5 4 2 2 5 2 4 5 7 9 8 9 5 2 3 2 2 3 5 6 4 4 8 8 9 8 12 8 6 6
11 11 12 13 14 15 14 14 13 14 13 7 7 4 4 7 3 4 4 2 1 3 1 2 1 5 5 3 3 1 4 5 3 3 3 4 2 3 3 0 2 3 4 4 2 1 2 3 1 2 1 3 3 4 6 7 5 4 7 6 4 3 3 6 6 6 7 7 5 3 5 5 4 4 5 7 6 5 6 5 6 6 1 6 11 10 3
11 11 12 12 14 15 15 14 11 13 7 10 5 3 3 1 3 4 4 3 2 2 2 2 1 2 1 1 1 3 1 2 4 3 2 5 2 3 4 4 2 2 4 3 4 2 3 1 2 2 1 2 3 5 3 5 10 2 2 6 3 3 4 8 9 9 6 1 3 4 6 6 2 4 6 6 8 6 6 6 2 6 1 10 4 14 6
10 11 11 12 14 15 14 12 9 10 8 3 5 5 2 4 2 1 3 3 4 5 3 1 5 5 1 4 1 2 2 2 2 3 3 1 2 2 2 2 3 3 3 3 3 2 2 1 0 1 2 2 5 6 3 4 8 3 2 5 4 1 5 7 8 7 4 3 2 1 1 3 3 4 6 7 7 7 3 2 7 7 3 2 4 4 4
10 11 12 13 14 15 14 14 10 8 5 7 5 4 2 3 3 2 2 2 4 4 6 2 4 5 2 4 1 4 3 4 3 2 2 1 2 4 1 1 3 3 3 3 3 2 5 1 3 4 4 4 3 2 4 2 4 1 3 4 1 2 6 5 6 5 5 4 4 3 4 4 4 6 5 4 4 4 3 3 5 5 5 4 1 7 9
10 11 12 13 14 15 15 14 9 7 4 5 5 3 2 5 4 5 1 4 6 4 3 4 4 4 1 1 3 3 3 4 3 3 1 0 1 1 1 1 1 2 2 2 0 4 6 4 2 4 5 2 2 2 4 2 1 4 5 4 2 1 0 5 4 5 5 4 4 5 5 4 5 6 5 4 3 1 5 4 5 5 2 3 2 4 6
10 11 12 13 14 15 15 14 11 3 5 4 3 1 2 2 3 2 5 6 4 4 3 4 3 3 3 2 4 1 3 5 2 5 3 3 2 2 3 2 1 1 2 0 2 3 4 3 3 5 4 4 5 4 3 5 4 0 4 3 1 5 1 3 4 4 4 5 6 6 5 6 5 4 7 9 7 4 6 4 6 5 4 8 1 3 2
10 11 12 13 14 15 15 14 12 6 6 4 2 1 2 1 1 2 3 3 1 2 3 2 3 2 3 3 3 1 4 3 1 2 1 1 3 4 4 3 5 2 3 2 3 5 5 7 8 7 6 6 6 4 4 4 4 4 4 3 3 3 2 2 3 4 3 7 7 6 7 5 6 5 7 8 5 7 4 3 8 7 7 5 1 6 5
10 11 12 14 14 15 14 14 11 8 7 2 3 1 1 2 2 3 3 2 2 2 3 3 1 5 3 2 4 2 2 1 1 2 2 1 2 1 2 2 3 2 2 5 5 5 7 7 6 5 5 6 5 3 2 3 4 4 5 4 1 2 4 3 1 6 3 3 3 5 5 6 2 3 5 4 3 6 6 5 8 10 8 3 5 4 7
11 12 13 14 15 15 14 14 13 9 6 3 3 3 2 3 3 2 3 3 3 2 3 3 3 4 3 4 2 3 3 1 2 3 2 2 2 1 3 1 3 0 5 3 5 6 4 3 4 3 3 4 4 4 4 1 2 2 2 4 4 4 3 2 1 4 1 5 5 5 6 2 3 2 8 5 1 5 4 4 8 10 10 4 4 6 7
11 12 13 13 14 15 14 14 13 12 8 3 2 2 1 3 4 1 2 1 3 5 3 4 4 4 4 5 4 3 1 1 1 1 3 3 1 2 2 2 3 5 5 7 7 6 5 3 2 2 2 4 5 5 4 2 3 2 0 1 4 3 4 2 3 3 1 2 5 4 3 1 3 4 8 9 2 6 7 4 6 11 10 10 4 6 7
11 11 12 13 14 15 15 15 14 12 9 3 3 3 2 3 3 2 1 1 3 2 4 6 5 5 4 2 1 1 2 4 2 1 4 3 4 2 2 2 3 5 5 5 6 4 3 4 3 4 5 4 5 4 5 5 7 7 4 1 2 6 5 4 4 2 5 1 2 4 5 5 6 3 8 8 4 7 5 2 4 10 9 4 3 6 6
11 11 12 13 14 15 16 15 14 13 11 6 4 3 3 2 3 3 1 1 3 3 2 1 4 4 3 2 1 4 4 2 4 4 3 2 4 2 2 2 4 4 2 5 3 3 2 0 2 2 2 5 5 2 5 3 3 6 7 5 2 2 4 2 6 2 3 3 5 4 5 2 5 4 7 5 4 3 4 3 1 9 10 5 4 5 7
11 11 12 13 14 15 16 16 15 13 11 11 4 2 1 2 1 3 2 0 4 4 2 4 3 2 2 1 1 3 1 1 1 2 4 5 4 3 2 2 1 2 4 5 3 2 1 2 0 3 2 2 3 2 2 2 1 4 4 2 3 3 4 2 4 1 2 5 4 2 1 4 5 10 10 8 6 3 3 4 1 7 9 5 4 7 7
12 12 12 13 14 15 15 15 15 14 11 10 3 1 1 1 3 2 1 3 3 4 4 3 2 0 2 3 4 2 1 1 2 1 2 4 2 1 1 1 2 4 4 5 3 3 3 1 2 1 3 3 1 3 2 1 0 1 4 5 9 3 3 5 5 2 2 2 3 4 4 3 10 12 11 10 6 3 3 4 3 7 8 5 5 6 5
12 12 13 13 14 15 15 15 15 14 12 10 5 1 2 1 2 3 1 4 5 4 4 1 2 2 1 4 3 3 1 2 3 1 2 2 2 1 2 2 4 5 4 4 2 1 0 0 0 1 3 3 2 3 2 2 3 3 3 5 2 4 3 1 4 3 4 6 6 5 4 3 11 12 12 8 1 4 2 3 5 7 6 4 5 6 3
12 12 13 13 14 15 15 15 15 15 13 11 4 3 3 2 1 4 0 3 4 5 5 4 3 7 5 3 5 3 4 3 2 1 1 3 2 4 4 1 3 1 3 2 3 0 1 3 1 3 2 3 2 3 1 1 3 2 4 3 1 4 3 2 1 4 4 4 6 7 6 3 11 13 11 3 3 1 4 4 5 5 3 4 6 7 7
12 13 13 14 15 15 15 15 15 15 15 14 7 4 3 2 1 2 1 8 7 9 6 4 2 8 0 2 3 1 3 3 3 2 2 2 2 3 3 3 4 4 2 3 1 1 0 4 4 3 5 6 5 4 8 7 5 5 2 1 3 3 3 3 5 3 4 3 6 4 4 5 14 17 3 11 3 3 2 2 5 7 7 7 8 8 8
13 14 14 15 16 16 16 16 16 16 16 14 7 1 6 3 1 2 3 8 10 10 7 2 1 7 4 7 5 5 7 5 5 4 4 4 3 2 2 2 3 2 1 1 1 2 1 3 4 2 2 2 5 3 5 5 7 7 5 6 9 5 0 4 4 6 5 6 6 5 3 7 11 10 6 5 5 3 0 1 5 7 6 7 9 10 10
13 13 14 15 16 16 16 16 16 16 16 15 11 2 7 5 4 4 5 5 6 7 7 4 4 5 5 5 4 4 6 5 5 5 5 2 2 3 3 1 3 2 2 2 3 2 1 3 3 4 5 5 1 4 3 3 6 5 6 2 4 10 9 4 7 6 5 5 5 3 3 4 6 7 5 4 6 6 6 7 7 7 7 9 11 10 11
13 13 14 14 15 16 16 16 16 15 15 15 9 3 6 5 5 3 2 12 8 7 4 5 4 4 5 5 3 4 4 3 4 3 4 5 2 2 2 2 4 2 0 2 4 4 5 4 5 5 7 6 5 7 8 8 7 6 8 10 9 5 6 10 13 13 13 11 6 4 6 7 8 8 7 8 8 9 8 8 8 8 8 8 10 10 11
13 14 14 14 15 15 15 15 15 15 14 13 8 3 5 3 3 2 8 7 7 9 6 4 4 4 7 8 5 2 3 3 4 5 4 4 2 3 3 3 1 2 2 4 3 3 4 4 4 4 7 3 2 6 5 6 8 9 9 7 7 7 5 7 7 5 2 6 6 10 11 11 9 9 10 11 11 10 9 10 10 11 11 11 10 11 11
13 13 14 14 15 15 15 15 15 15 13 11 5 2 2 3 3 3 4 5 3 3 6 5 6 4 5 3 3 3 6 5 2 2 2 4 5 6 5 4 3 4 5 2 1 1 2 3 5 6 7 2 4 6 3 6 5 2 6 8 6 7 2 10 10 11 9 9 11 12 12 11 11 10 10 11 11 11 11 10 11 11 11 11 12 12 11
13 14 14 14 14 14 14 14 14 13 11 12 7 2 3 4 3 3 1 5 5 3 6 6 7 3 2 5 9 5 6 5 3 4 2 2 3 4 6 4 3 1 3 0 2 2 4 4 5 5 7 5 4 7 9 9 8 7 8 6 7 1 6 6 8 11 12 14 12 12 14 14 13 12 12 10 10 10 10 10 11 12 12 11 10 8 9
13 14 14 13 13 13 13 13 12 11 11 12 5 5 4 3 4 4 2 2 5 5 4 6 5 7 7 10 5 4 4 4 2 4 6 4 3 3 2 3 5 3 3 6 4 4 4 6 6 9 8 6 5 7 6 7 8 6 8 8 1 5 11 10 9 9 8 8 10 8 8 9 10 11 11 11 10 11 11 10 10 10 11 11 11 9 9
13 14 14 13 12 12 12 11 10 10 9 8 3 5 5 5 4 4 3 3 5 3 6 7 7 6 3 10 7 6 6 5 5 8 8 8 7 4 2 2 1 3 2 3 6 5 8 10 10 5 5 6 6 8 7 7 8 10 9 8 7 6 3 2 4 6 8 8 5 5 11 11 10 10 9 10 10 10 10 9 9 8 8 8 9 10 9
13 14 13 13 12 11 10 10 9 8 7 5 1 2 5 4 3 4 4 2 4 6 5 6 5 3 2 4 5 5 7 7 8 8 8 9 9 8 7 6 6 5 8 7 7 7 7 6 3 4 4 4 2 6 6 8 9 10 9 8 8 6 5 10 13 13 12 10 9 9 9 11 10 9 9 8 7 8 9 9 8 8 7 7 6 6 7
15 14 14 13 12 11 10 9 7 6 7 3 2 3 4 4 3 5 6 5 4 2 5 5 6 3 1 1 6 7 7 7 9 11 11 9 9 8 7 7 7 6 6 5 5 8 6 5 3 4 2 4 2 5 6 8 9 10 9 8 7 7 8 7 4 9 10 9 9 10 11 11 9 8 7 7 6 6 7 8 7 7 6 5 5 5 4
14 15 14 13 12 11 10 9 7 4 4 3 3 2 3 4 3 4 7 5 3 2 3 3 5 3 3 2 3 8 7 6 7 7 8 7 7 7 5 5 7 4 7 6 6 5 2 5 3 2 1 4 2 4 8 8 10 9 9 9 9 10 10 10 9 10 11 10 10 10 10 9 7 7 7 5 5 5 7 7 5 3 5 3 4 3 3
15 15 14 13 12 11 10 9 7 7 3 2 2 3 3 4 3 6 7 4 4 3 5 6 3 2 3 2 3 4 4 3 1 4 5 4 7 6 9 8 6 7 5 6 4 4 5 3 4 5 6 3 4 6 8 9 10 10 9 10 9 9 9 10 10 10 10 10 10 9 8 7 4 4 6 5 5 4 6 7 6 6 2 1 4 3 3
15 15 14 13 12 10 9 6 5 3 5 5 5 8 7 2 5 5 3 4 2 3 2 1 3 2 1 5 1 5 6 3 4 3 6 6 4 3 5 4 5 6 7 1 3 3 1 3 6 7 5 4 4 6 9 9 10 9 9 9 9 9 9 9 9 8 7 4 5 5 7 7 7 7 7 6 5 5 5 5 5 4 4 4 4 4 3
15 15 14 13 11 8 6 3 2 4 5 3 3 4 5 10 4 3 4 2 3 1 1 1 3 2 4 3 3 6 7 2 5 2 5 4 3 1 4 5 6 4 6 6 3 4 3 4 7 7 5 6 5 7 8 9 10 10 9 9 8 8 8 8 8 7 6 6 7 8 7 6 6 6 5 5 5 4 3 3 3 2 3 2 2 2 2
15 15 14 12 9 7 3 3 3 2 3 3 3 2 5 9 6 6 3 2 2 2 1 1 1 4 4 2 4 4 5 3 4 4 3 4 4 4 3 3 3 4 2 2 3 4 5 2 2 4 6 6 6 6 6 9 10 9 8 8 8 7 7 7 7 5 5 5 6 6 5 5 5 4 4 4 3 3 2 2 0 2 1 1 1 1 2
15 15 13 11 9 5 3 5 1 2 3 3 4 3 5 7 5 2 2 4 4 2 2 2 2 3 2 5 4 2 3 5 3 1 3 0 4 4 2 5 7 4 3 1 6 4 4 2 2 6 2 5 6 6 7 7 8 7 7 7 5 5 6 5 4 4 4 4 5 5 4 3 4 4 2 2 2 1 1 1 1 2 2 2 2 1 2
15 13 12 9 5 4 2 1 1 2 3 3 5 9 11 7 2 3 2 1 3 4 1 2 2 3 3 5 2 2 3 4 1 3 3 2 4 1 2 4 5 0 1 4 4 5 4 4 1 6 5 7 7 6 6 5 7 6 6 4 3 2 2 3 3 2 4 4 3 2 2 2 3 1 1 1 1 1 1 2 1 1 2 3 3 3 3
12 9 4 4 3 2 2 1 2 3 5 5 5 3 2 3 2 2 1 1 2 3 1 2 3 3 1 2 3 2 3 4 3 3 3 1 1 3 1 3 2 1 5 4 4 2 1 2 5 7 7 7 6 6 6 6 6 5 5 4 4 3 2 2 2 2 3 4 4 3 2 1 2 2 2 1 1 2 1 2 2 2 2 2 2 3 3
7 3 3 1 2 2 1 4 3 2 3 1 3 1 2 1 1 2 1 0 0 2 1 1 4 1 2 5 5 3 3 1 3 3 3 2 0 4 1 3 1 1 5 4 3 4 3 4 4 6 7 7 8 7 5 6 6 5 5 6 6 5 3 3 3 3 4 5 6 4 4 3 3 2 1 1 1 2 1 1 0 1 2 3 3 2 2
4 5 3 3 1 3 3 4 4 2 3 1 0 0 3 0 1 2 0 2 2 2 1 2 2 2 4 2 4 4 2 3 2 4 4 4 3 1 2 1 1 1 5 3 4 3 3 5 3 5 6 5 8 6 5 5 6 6 6 7 7 6 6 5 4 3 3 3 3 3 2 2 1 2 2 0 1 1 1 1 0 1 2 3 3 3 2
2 3 2 2 4 3 2 1 2 1 1 2 2 1 0 2 1 1 1 2 1 2 2 3 3 4 3 0 1 4 2 2 3 3 2 3 1 2 2 2 0 1 2 3 2 1 2 4 4 4 6 7 8 7 6 6 7 7 6 6 6 5 5 5 4 3 2 1 2 2 2 1 1 1 1 2 2 1 1 1 1 2 3 3 2 2 2
3 3 3 2 2 2 2 2 0 1 1 1 0 2 1 1 1 1 1 1 3 3 4 2 3 4 4 3 4 3 3 2 1 0 1 2 1 1 3 2 1 1 3 2 1 2 3 4 4 5 6 9 8 7 6 7 6 7 7 6 6 5 5 5 5 5 4 4 3 3 3 3 2 2 1 2 2 1 2 2 2 2 3 3 3 3 2
4 4 3 3 3 1 1 2 2 1 1 1 1 2 1 2 1 1 2 1 0 1 3 2 4 4 4 3 4 4 2 1 1 1 0 2 1 1 1 2 2 2 2 3 2 3 4 4 4 6 9 9 8 7 6 6 6 5 6 4 4 4 4 5 5 5 4 4 4 4 4 3 2 2 2 2 2 2 2 2 2 4 4 4 4 3 2
1 3 2 1 2 1 1 2 0 0 1 0 2 4 3 3 4 2 2 4 3 3 5 6 6 5 4 1 1 3 2 3 0 1 2 1 1 2 1 2 2 3 1 3 3 5 3 3 4 8 9 8 6 7 6 5 5 4 5 4 3 3 2 1 1 1 2 1 1 2 2 2 3 1 2 2 3 4 4 4 2 3 4 4 4 4 2
3 1 1 1 1 0 0 1 1 1 2 2 1 2 3 4 5 4 2 3 3 7 5 4 5 3 5 3 0 1 2 2 1 1 2 1 2 1 1 3 2 2 3 5 3 2 2 4 3 8 10 10 8 7 6 5 4 2 3 2 2 1 0 1 1 2 2 2 3 3 4 3 3 3 2 2 3 3 5 6 4 5 5 5 5 5 3
2 3 3 3 2 2 1 1 1 3 1 2 2 2 3 2 5 5 5 2 6 8 7 6 5 5 4 1 1 2 1 1 2 2 0 1 2 3 2 1 1 2 1 3 4 5 5 4 7 9 10 10 8 7 5 4 3 2 2 2 2 1 0 2 2 3 3 4 3 4 4 4 5 5 5 5 5 6 5 5 5 5 5 6 5 6 4
2 0 0 0 2 1 1 2 2 1 1 3 1 1 2 6 6 6 4 1 6 6 7 4 3 2 4 3 2 2 1 1 2 1 1 1 2 2 0 1 2 2 4 5 4 3 3 4 6 9 10 9 8 6 5 4 3 2 2 0 1 1 1 1 1 2 2 2 4 5 5 5 4 4 4 6 6 6 6 5 5 5 6 6 5 5 5
2 1 1 2 2 2 4 1 2 3 1 2 2 3 4 6 7 6 4 2 6 6 7 6 6 5 3 1 2 3 3 1 2 2 1 2 1 1 2 1 1 1 1 3 4 2 3 7 8 9 9 8 7 6 5 3 3 2 2 2 1 1 0 1 2 2 2 3 4 4 4 5 4 4 5 5 6 6 5 5 5 5 5 6 6 6 6
1 0 1 1 1 1 1 3 4 4 4 3 4 5 6 6 7 6 4 3 5 5 2 2 3 2 3 0 1 3 2 1 1 2 1 1 2 3 3 3 4 4 3 2 2 3 5 8 9 9 8 7 6 4 4 3 3 3 2 1 1 0 1 2 2 2 2 3 3 3 4 3 4 5 5 5 6 5 4 3 5 5 5 6 6 6 6
1 2 1 2 2 1 1 3 3 5 6 6 5 6 6 8 7 5 3 4 5 5 5 4 1 1 2 1 2 1 2 1 1 2 2 2 1 1 1 2 3 2 4 3 2 5 8 8 9 8 8 6 5 3 3 4 3 2 2 1 1 1 1 2 3 2 2 2 2 3 3 3 4 4 4 5 5 5 5 5 5 5 5 5 6 6 6
0 0 1 2 1 3 6 6 7 8 7 7 7 7 7 8 7 6 1 4 6 4 3 2 2 2 3 1 2 3 1 1 2 2 1 2 1 2 2 2 3 2 3 4 6 7 8 8 7 7 6 5 4 3 2 2 1 1 0 1 1 1 1 1 1 1 1 1 1 2 3 3 4 4 4 4 5 6 7 5 4 4 4 5 5 6 6
2 2 2 2 1 3 2 3 6 6 7 7 7 5 5 8 6 6 2 3 5 4 3 2 2 2 1 2 1 2 2 1 1 1 2 1 1 1 2 0 2 3 5 6 7 7 6 5 5 4 5 4 3 2 2 1 0 0 0 1 1 1 1 1 1 1 2 2 2 3 4 4 4 4 4 5 6 6 6 5 2 3 4 5 5 5 6
Wind_Direction
334 333 334 336 333 332 334 332 332 333 333 324 12 292 222 208 92 66 147 171 252 263 119 126 176 155 67 124 159 144 196 308 77 237 113 218 194 231 236 20 275 101 343 354 336 358 44 9 94 62 103 76 33 22 32 356 209 242 123 144 124 188 242 231 249 257 262 270 134 127 190 182 213 148 33 260 249 286 276 272 277 256 226 236 240 246 204
336 338 339 334 333 335 334 333 331 329 333 313 300 262 195 128 133 135 149 219 274 261 168 150 131 106 122 168 92 65 27 305 161 218 73 326 158 279 265 171 19 5 6 313 337 359 264 76 130 136 359 97 37 31 20 297 122 316 65 309 164 225 140 277 266 275 249 219 186 183 148 234 258 331 48 6 304 270 262 257 241 249 230 240 260 262 141
343 341 334 334 337 336 336 335 327 324 318 276 256 264 149 137 99 118 141 203 254 250 36 101 120 118 116 144 125 145 153 50 13 353 54 3 9 261 159 359 332 283 24 317 305 28 348 255 57 9 48 77 65 38 24 4 95 357 40 351 46 270 141 184 230 240 233 219 225 207 177 211 7 79 6 28 344 324 248 226 218 239 238 232 233 256 68
339 338 337 338 338 339 338 332 328 331 316 234 213 259 209 176 147 157 153 183 158 84 5 341 115 126 132 102 85 210 133 132 84 306 94 11 82 19 335 123 291 307 295 248 234 337 44 321 51 249 106 123 84 32 33 25 33 8 35 16 184 233 176 204 203 215 258 314 12 207 258 267 253 353 2 4 355 327 266 304 258 247 290 275 252 265 154
340 338 338 340 342 342 343 337 344 349 350 198 228 256 281 187 182 158 168 152 221 140 177 131 237 122 293 112 23 122 125 124 137 352 206 59 17 64 23 8 267 334 285 293 269 282 273 137 246 51 313 75 64 74 29 41 33 19 322 47 13 255 206 208 210 220 235 266 301 32 279 289 21 351 2 2 358 335 273 249 254 4 126 235 28 353 298
340 342 343 346 344 345 344 344 356 1 359 301 280 209 180 213 100 240 33 277 146 178 143 129 99 96 219 87 278 73 143 169 149 145 66 94 33 287 132 70 62 20 359 314 265 287 258 327 17 286 40 297 161 160 63 38 31 1 6 81 92 295 265 168 205 216 194 200 186 172 41 38 31 34 18 354 350 357 333 326 358 334 280 307 10 342 49
343 346 348 349 347 347 350 351 357 4 323 304 280 229 116 335 92 83 342 255 72 39 85 122 115 108 60 109 181 97 75 97 68 7 119 162 75 335 94 4 54 38 23 312 258 350 247 138 61 27 353 11 306 193 173 182 37 74 138 212 192 193 258 165 218 191 181 171 177 182 160 121 87 67 38 1 354 10 352 346 344 319 324 19 9 79 56
352 348 348 350 349 351 353 352 354 9 317 265 262 289 223 168 178 142 176 88 100 107 136 132 167 125 187 184 72 50 65 89 113 120 322 115 88 360 203 72 61 36 3 325 310 59 41 34 22 39 343 272 293 14 27 358 345 5 9 2 87 329 189 128 208 208 190 164 170 167 172 170 93 52 34 24 342 7 16 356 4 312 231 10 202 111 67
349 348 349 350 350 351 355 352 354 16 292 220 260 133 350 12 348 345 166 137 100 140 155 165 148 135 163 166 128 158 81 73 38 82 25 34 61 39 40 19 342 184 299 73 95 63 24 336 336 313 301 296 29 315 71 346 313 284 178 233 160 208 266 196 203 240 187 187 204 176 170 172 137 74 38 20 17 13 4 23 13 359 354 335 234 191 131
349 349 349 349 351 353 352 352 350 351 260 287 295 202 85 247 83 274 262 143 275 194 126 135 202 119 61 30 106 5 87 66 238 138 80 43 33 26 9 25 295 167 231 218 56 21 335 319 313 308 291 274 283 274 305 318 316 313 320 352 288 360 288 211 208 235 223 154 201 189 194 197 200 54 7 344 351 354 341 57 26 17 334 313 296 47 99
348 348 349 348 351 353 353 354 351 356 325 308 299 52 187 266 160 184 239 149 160 206 178 147 265 59 104 143 138 134 103 85 261 307 122 232 142 23 323 314 321 315 49 53 19 322 308 298 295 275 256 261 251 248 248 241 251 282 296 304 297 298 295 274 217 265 114 185 195 206 209 237 85 64 10 329 341 1 353 28 2 354 340 335 352 88 123
347 347 347 348 350 350 351 354 356 12 350 315 296 302 350 322 278 238 201 188 129 178 244 75 48 125 176 134 180 146 163 175 46 357 334 24 11 307 250 240 278 327 66 333 312 303 276 235 220 205 234 221 219 196 192 136 106 216 230 268 303 298 292 272 259 263 280 133 176 219 241 82 118 128 27 2 304 4 326 317 13 5 353 350 91 115 133
347 346 345 347 347 348 349 354 358 4 8 322 248 288 50 303 295 271 233 221 145 183 198 116 101 113 121 148 165 159 35 24 325 313 281 283 191 195 242 309 287 32 342 323 308 284 248 246 221 248 149 161 160 164 177 130 47 53 100 208 251 263 244 244 227 253 181 213 181 237 79 82 181 170 28 4 238 346 317 230 39 17 1 354 53 91 110
347 346 345 345 345 346 349 353 358 359 12 338 248 270 305 270 271 201 201 183 111 80 71 116 152 143 159 145 181 204 216 226 216 222 259 203 257 250 135 264 10 340 317 300 275 258 222 216 221 212 170 184 153 202 142 84 36 15 14 139 211 256 271 244 244 148 242 241 47 75 127 120 59 60 9 15 357 342 353 332 29 23 2 33 102 100 114
347 347 347 344 345 346 348 351 354 356 359 341 257 255 254 237 279 308 36 292 122 119 232 211 138 141 154 149 257 261 232 229 249 210 170 97 252 256 328 352 339 323 289 279 242 207 254 260 229 244 196 224 234 190 192 142 41 38 31 3 343 325 252 347 249 184 279 211 156 161 193 146 71 30 3 11 344 313 284 261 227 24 8 39 119 119 122
349 350 347 345 345 347 348 350 353 352 357 338 249 281 59 338 291 286 296 65 153 155 102 48 56 158 196 131 8 291 315 268 250 237 196 194 211 196 156 304 329 254 249 243 262 253 198 247 182 274 294 21 18 239 285 66 160 127 82 59 134 140 119 62 297 307 182 260 216 133 127 78 30 350 348 345 335 284 227 241 109 15 358 28 106 109 118
351 350 348 346 346 344 348 351 351 352 352 346 305 271 81 74 252 290 152 115 42 75 68 60 73 199 182 147 184 176 348 325 333 251 182 154 134 319 156 16 157 239 236 252 207 208 183 186 233 15 89 33 248 355 292 21 260 43 30 42 57 72 152 165 201 222 310 242 120 104 38 32 352 341 338 333 316 203 193 229 84 5 357 32 90 99 87
349 350 349 346 344 344 347 348 351 352 351 342 300 327 57 96 252 261 234 121 112 94 69 36 303 216 69 29 63 67 258 216 199 208 294 75 204 177 17 272 201 172 274 244 205 176 112 234 68 356 56 50 351 266 50 332 23 9 359 2 43 56 69 212 142 130 108 99 100 105 103 57 352 340 333 335 17 191 246 15 4 356 355 47 54 63 65
351 350 349 347 345 347 347 347 349 352 353 349 313 222 84 33 177 256 182 117 120 107 88 65 20 64 73 75 49 60 23 360 316 266 157 172 99 6 298 72 316 180 211 209 218 165 128 96 76 66 117 142 193 42 243 45 4 327 2 27 51 44 14 61 115 113 108 99 95 93 85 46 346 337 324 9 245 10 44 348 323 310 37 53 60 61 65
352 351 349 347 347 348 348 347 347 351 354 354 330 90 63 47 321 288 336 103 98 105 117 105 111 98 164 31 79 100 170 183 7 360 16 44 60 243 204 201 172 239 174 211 128 329 81 94 84 122 97 89 82 123 95 83 53 25 48 33 24 10 326 76 73 90 109 101 97 100 44 39 5 329 307 16 24 46 32 27 33 51 59 67 61 70 82
351 350 348 347 347 349 350 349 350 351 353 352 335 224 89 52 38 212 286 120 118 112 103 112 87 84 55 63 38 26 15 26 357 11 43 24 11 282 243 73 47 336 51 331 77 120 50 124 124 81 64 76 140 232 94 98 71 56 13 48 42 338 291 74 60 353 72 74 58 56 21 314 334 3 45 348 12 338 327 324 73 61 65 74 77 69 78
352 350 349 348 348 349 349 350 350 352 351 349 333 282 84 43 44 25 16 53 91 90 99 70 37 70 66 50 26 3 356 341 351 329 320 55 49 2 54 66 39 355 34 289 150 135 154 95 138 129 121 109 157 72 197 92 65 66 44 299 78 19 58 20 76 21 44 68 73 41 18 355 7 20 45 34 33 62 81 86 73 78 70 83 84 78 77
352 352 350 348 349 348 349 349 351 353 354 352 341 77 82 96 80 340 100 93 91 101 122 124 156 134 154 102 56 25 8 353 307 285 284 302 97 37 21 25 93 24 57 307 354 57 92 123 90 92 84 58 82 100 81 78 88 72 71 54 93 87 61 87 83 86 90 73 75 88 65 57 54 57 52 56 68 73 84 81 84 78 88 92 100 101 97
355 353 351 349 348 348 349 350 352 355 356 359 347 71 89 50 10 73 107 102 113 110 98 88 119 53 30 39 30 39 13 2 342 314 323 285 325 122 119 61 36 186 72 33 318 8 74 68 66 91 99 59 301 90 92 85 73 87 93 95 80 79 103 103 91 160 114 66 72 83 86 87 84 74 69 69 70 77 81 87 93 102 103 102 102 105 105
356 354 351 349 347 348 348 350 351 356 356 356 348 68 145 104 35 340 125 124 148 123 102 88 58 29 15 357 352 30 22 343 309 282 246 229 296 8 63 39 359 4 80 47 248 199 127 114 132 107 93 33 317 92 77 118 89 11 107 100 121 96 46 90 86 98 92 105 95 91 91 90 88 87 85 80 83 86 87 95 106 110 112 113 118 117 112
357 354 352 348 347 348 347 349 351 355 353 352 334 36 67 62 349 302 57 63 67 100 110 94 86 53 44 59 40 15 331 347 13 35 54 20 3 19 111 145 108 41 76 74 281 81 90 88 87 99 101 77 355 83 70 58 88 59 71 65 24 43 255 95 108 100 103 106 104 101 94 87 82 79 77 87 96 99 102 109 113 115 118 122 125 128 127
355 354 351 349 348 345 345 344 352 354 356 349 26 63 75 73 27 358 60 111 115 100 107 101 100 89 69 67 42 29 6 356 31 77 74 67 97 110 126 117 110 134 109 89 58 77 77 78 78 82 78 83 63 75 97 102 79 87 82 61 35 136 98 115 118 114 116 122 125 128 115 107 99 90 93 97 101 107 113 118 118 118 117 121 123 124 126
353 352 350 348 346 343 341 342 347 352 358 333 359 63 60 61 34 17 357 342 301 125 127 125 115 103 110 67 31 42 33 38 62 71 69 71 76 88 118 118 30 84 94 111 107 96 94 94 86 88 97 119 103 80 79 90 88 74 71 47 6 89 35 266 116 111 112 116 100 80 102 103 98 105 103 99 99 102 103 109 123 131 130 132 131 130 133
349 350 348 347 344 341 340 341 341 345 347 317 301 124 94 67 52 46 9 305 279 115 107 104 123 136 86 43 337 65 51 45 61 62 63 65 64 67 75 67 73 84 87 77 84 86 83 77 60 74 73 350 19 110 108 80 73 72 61 50 55 58 7 63 89 97 103 110 111 112 113 110 114 108 103 98 94 89 87 90 98 116 130 136 133 136 139
345 345 346 345 344 342 342 341 341 341 316 282 271 185 146 113 54 30 4 330 337 122 129 132 107 87 169 5 36 41 53 46 60 56 53 55 56 54 56 67 67 59 71 80 92 91 82 89 82 79 49 288 83 104 98 93 85 82 76 74 75 83 73 59 68 108 110 108 106 106 108 112 110 108 101 98 80 74 86 86 88 97 105 110 116 128 138
342 342 342 341 342 343 340 340 337 340 287 283 257 168 166 143 93 42 359 339 321 307 100 111 100 129 101 63 355 21 20 41 47 50 45 41 54 53 54 79 48 57 97 82 75 72 95 97 95 89 131 2 324 111 100 101 95 89 79 82 85 91 85 81 79 98 112 110 105 106 107 105 111 112 105 101 106 104 102 98 94 55 47 106 100 103 115
337 337 336 338 340 341 341 336 336 297 286 343 345 4 26 29 26 334 329 312 298 182 125 118 136 134 92 103 46 8 1 11 7 84 58 2 74 51 62 50 66 40 48 75 80 88 61 70 80 90 103 332 299 93 95 93 93 91 96 92 94 96 99 102 104 107 111 116 120 112 110 116 118 88 102 112 112 103 93 98 99 112 162 102 96 100 96
332 332 333 335 337 342 345 351 344 323 86 92 115 135 114 29 326 295 313 283 222 42 331 96 89 128 150 83 141 46 349 232 102 65 69 360 50 20 82 58 80 70 4 45 54 83 33 97 101 91 53 308 88 88 89 88 92 100 93 95 95 95 97 98 102 105 108 77 360 94 109 107 98 95 108 115 113 102 108 100 104 113 116 117 109 111 120
327 328 328 330 332 340 340 360 23 89 158 183 122 57 39 10 340 27 316 280 73 82 304 96 135 126 105 205 150 60 341 27 81 354 93 35 336 10 87 85 57 74 7 55 107 118 98 101 97 100 100 67 79 92 88 93 107 107 106 102 106 113 114 112 106 95 85 82 76 71 79 89 98 110 123 121 115 114 103 115 127 132 90 83 83 67 97
323 323 324 322 324 326 317 234 214 227 82 89 89 72 1 352 338 297 302 280 184 131 125 72 301 128 135 136 96 69 347 303 94 18 76 78 351 50 101 95 80 89 62 297 89 79 95 51 322 111 84 94 89 87 100 112 108 113 113 109 110 118 126 116 104 87 89 101 103 96 101 110 119 118 105 111 123 131 141 142 92 341 337 22 22 147 203
318 318 316 316 308 275 221 218 292 148 133 81 82 26 348 312 298 301 330 32 359 121 136 106 243 124 144 127 109 94 284 90 72 98 54 200 113 26 29 101 92 51 301 324 104 97 88 349 268 106 114 94 74 86 91 87 104 100 97 96 80 64 63 61 91 110 102 98 99 100 94 77 72 90 107 104 112 150 193 234 162 271 313 312 314 324 255
315 314 303 285 260 188 116 72 45 349 44 5 333 321 293 282 230 227 222 155 64 344 41 162 142 86 1 85 93 95 272 125 181 119 61 65 82 12 44 98 84 18 164 94 83 88 79 280 107 100 93 98 95 65 69 61 69 79 83 81 92 91 107 93 78 119 135 121 116 118 101 102 111 99 109 140 97 125 212 228 205 287 327 340 338 298 287
314 296 267 175 175 141 130 128 65 22 322 289 281 244 148 236 150 116 105 75 14 293 70 303 87 98 258 243 99 33 277 105 283 114 108 24 160 90 6 70 57 254 109 87 74 329 45 65 94 99 91 81 84 86 85 84 85 79 76 82 79 73 59 64 116 186 151 166 162 142 141 89 26 55 321 71 160 144 123 49 65 40 8 345 351 317 269
266 235 204 195 188 137 82 95 51 348 272 212 243 241 105 334 151 126 66 30 188 115 26 305 107 132 151 107 88 47 357 81 144 154 141 24 334 113 271 127 122 212 115 134 114 256 127 111 122 123 116 128 121 101 100 96 90 78 74 65 55 54 54 97 76 34 43 44 36 28 351 352 348 10 76 289 117 99 116 160 304 17 6 349 332 323 291
197 188 157 165 105 84 74 120 154 241 222 193 81 253 116 322 215 126 241 161 114 71 248 121 34 36 347 34 126 110 24 294 176 138 116 112 336 77 110 92 94 189 137 143 116 274 157 132 137 133 128 134 114 124 120 112 101 93 80 74 73 74 80 90 91 56 39 39 33 23 32 9 344 314 313 284 284 245 220 240 317 6 351 12 33 324 319
167 140 185 127 100 110 93 77 207 231 238 150 122 32 120 123 30 30 185 139 96 96 351 86 151 142 116 240 150 111 107 300 29 10 71 71 33 277 149 101 327 118 134 117 122 236 127 128 160 153 132 132 129 132 125 114 101 97 88 88 84 85 90 94 90 72 42 59 51 28 24 360 314 283 305 330 300 306 125 277 295 347 346 343 325 343 10
18 349 28 49 74 109 177 156 334 128 57 332 104 71 24 71 143 171 277 204 129 139 132 195 156 132 108 32 65 97 109 337 326 310 149 117 16 360 94 122 196 196 138 71 128 186 157 150 162 141 134 131 128 136 130 117 107 101 93 85 83 81 88 87 88 81 53 41 33 14 19 351 328 293 287 266 257 250 252 257 277 297 313 335 314 292 286
241 251 278 172 150 130 277 143 38 306 151 132 101 98 180 172 168 180 133 107 59 236 108 349 75 84 96 231 104 21 52 346 271 122 72 95 159 247 132 122 192 131 89 153 197 161 177 160 173 147 144 141 147 145 131 115 114 109 105 95 85 70 64 67 62 63 62 44 34 22 10 352 353 2 348 281 251 234 222 261 310 314 316 311 308 300 278
213 234 195 141 128 64 249 121 236 93 42 277 174 161 179 171 173 180 179 148 153 133 149 157 159 200 127 355 34 131 158 156 327 89 82 113 216 110 139 146 85 68 137 177 184 177 166 158 179 147 145 139 145 144 136 139 135 132 126 123 121 129 98 84 91 66 73 66 48 21 334 356 326 303 250 262 271 284 294 292 304 318 309 295 290 285 286
173 134 129 141 58 22 257 61 260 226 197 170 225 169 171 187 166 185 136 123 187 133 149 148 157 148 111 113 181 74 307 105 160 231 114 162 106 84 134 107 112 166 183 160 166 134 147 174 129 133 147 151 153 149 144 144 144 138 109 133 143 140 224 294 333 308 307 317 333 327 312 320 303 294 280 259 257 274 284 289 295 288 288 283 283 283 266
176 150 156 119 11 310 311 114 138 203 202 158 193 187 191 116 146 118 81 138 125 135 146 138 130 122 113 74 317 103 144 154 125 54 34 224 133 97 59 77 213 155 155 181 178 185 188 166 160 159 157 154 151 149 152 146 148 152 198 199 139 153 284 294 294 300 304 307 306 300 302 298 296 295 291 290 283 276 272 278 286 288 293 286 278 278 283
117 336 357 93 119 140 259 189 176 42 61 161 68 23 59 87 70 86 88 146 139 117 108 96 83 89 130 136 141 145 136 97 83 82 258 127 86 101 284 214 164 172 172 179 185 176 157 138 145 147 149 144 145 148 156 154 166 187 214 172 219 206 173 238 276 298 339 310 294 288 288 291 296 298 303 292 288 280 274 274 273 276 278 280 284 280 276
148 28 278 186 169 166 189 156 56 124 68 32 79 92 95 122 127 114 101 82 113 137 132 137 137 141 117 107 288 96 105 105 109 87 14 93 122 129 139 159 159 165 230 195 191 188 147 138 139 139 142 145 149 153 151 144 143 152 145 149 155 159 293 313 310 325 318 302 298 295 294 288 286 288 290 296 296 289 278 269 270 269 272 270 271 271 272
64 189 206 108 88 168 93 103 170 127 109 111 125 133 140 135 108 101 107 128 139 114 95 175 137 164 98 75 139 143 122 153 158 121 173 185 164 156 183 170 176 187 187 238 154 140 130 128 128 133 137 139 134 130 123 127 132 141 143 129 96 42 306 311 320 318 299 289 297 303 305 320 303 290 287 281 280 287 295 283 271 267 261 267 270 274 276
167 129 166 164 156 138 97 174 167 124 130 139 148 132 127 118 115 107 128 121 112 125 118 89 55 39 98 180 130 87 119 129 79 152 182 149 129 154 186 163 187 207 149 173 133 124 124 127 131 133 132 131 133 139 131 131 140 174 150 168 191 260 325 343 314 307 299 324 325 336 325 304 296 304 306 310 313 308 289 282 277 265 262 260 265 268 272
351 351 55 346 323 136 159 167 155 142 149 147 142 135 140 129 131 135 163 143 154 157 178 149 126 136 145 122 145 162 115 115 182 171 176 132 149 187 180 176 177 176 109 118 121 126 129 133 141 133 133 136 132 122 113 105 121 107 109 278 338 335 353 314 306 289 279 281 327 292 293 311 321 319 319 308 299 295 287 262 244 271 265 261 259 267 272
196 170 145 137 245 172 164 90 131 140 131 132 127 112 131 123 121 121 182 186 167 182 135 137 162 135 167 162 130 83 122 173 94 150 175 133 209 180 160 48 100 123 128 135 125 124 125 130 121 124 139 111 112 111 109 89 309 294 304 22 346 339 333 317 298 345 334 317 310 317 317 311 305 292 293 283 283 283 289 300 283 262 273 270 267 265 267